Regional Weather Roundup
Issued by NWS

Home | Current Version | Previous Version | Graphics & Text | Print | Product List | Glossary On
Versions: 1 2 3 4 5 6 7 8 9 10 11 12 13 14 15 16 17 18 19 20 21 22 23 24 25 26 27 28
000
ASUS45 KCYS 242010
RWRWY

WYOMING REGIONAL WEATHER ROUNDUP
NATIONAL WEATHER SERVICE CHEYENNE WY
200 PM MDT SUN SEP 24 2017

NOTE:  "FAIR" INDICATES FEW OR NO CLOUDS BELOW 12,000 FEET
WITH NO SIGNIFICANT WEATHER AND/OR OBSTRUCTIONS TO VISIBILITY.

WYZ001-242100-
YELLOWSTONE NATIONAL PARK

CITY           SKY/WX    TMP DP  RH WIND       PRES   REMARKS
LK YELLOWSTONE NOT AVBL
W YELLOWSTONE  NOT AVBL

$$
WYZ002>013-054>058-071-098>099-242100-
NORTHERN WYOMING

CITY           SKY/WX    TMP DP  RH WIND       PRES   REMARKS
JACKSON        FAIR      50  31  48 NE10G21   29.96F
CODY           CLOUDY    45  33  63 NW5       30.09F
GREYBULL       CLOUDY    50  39  66 NW7       30.05F
WORLAND        LGT RAIN  44  41  89 NW5       30.06F
SHERIDAN       CLOUDY    47  39  74 NE7       30.10F
BUFFALO        CLOUDY    42  35  76 N13       30.10S
GILLETTE       CLOUDY    44  38  79 N7        30.08S
HULETT         CLOUDY    43  39  87 NE3       30.09F
NEWCASTLE      MOCLDY    50  37  62 NW10      30.04F

$$
WYZ014>020-022>026-101>103-242100-
CENTRAL WYOMING

CITY           SKY/WX    TMP DP  RH WIND       PRES   REMARKS
BIG PINEY      LGT RAIN  39  37  92 NW6       29.99R WCI  35
PINEDALE       MOCLDY    43  34  70 SW16      29.97S
DUBOIS         CLOUDY    41  32  70 SE14G22   30.03S
LANDER         LGT RAIN  38  35  89 NW6       30.05S WCI  33
RIVERTON       LGT RAIN  39  37  92 E7        30.07F WCI  34
CASPER         LGT RAIN  40  38  93 NE14      30.04F WCI  32
DOUGLAS        CLOUDY    43  39  86 NE7       30.05F

$$
WYZ021-027>030-104>119-242100-
SOUTHERN WYOMING

CITY           SKY/WX    TMP DP  RH WIND       PRES   REMARKS
EVANSTON       SNOW      34  34 100 N12       29.95R VSB 1/2 WCI  25
FORT BRIDGER   RAIN      36  36 100 SE3       29.96S
ROCK SPRINGS   PTSUNNY   43  38  82 E15       29.98S
DIXON          LGT RAIN  50  36  58 NE13      29.97S
RAWLINS        CLOUDY    44  39  82 NE15G23   29.98F
SARATOGA       MOCLDY    46  37  71 NE9       29.98F
LARAMIE        CLOUDY    45  36  70 E17       29.96F
CHEYENNE       CLOUDY    44  41  89 E12       30.01F
TORRINGTON     CLOUDY    49  45  86 NE12      30.01F
PINE BLUFFS    CLOUDY    45  45 100 MISG      30.02F

$$




USA.gov is the U.S. government's official web portal to all federal, state and local government web resources and services.